Location: Limerick
(52.6800°N, 8.6400°W)
Time: 03:34:50
(UTC+01:00)

Amateur Radio Satellites - All Passes

Search period start: 29 July 2014 03:04
Search period end: 30 July 2014 03:04
Location: Limerick, 52.6800°N, 8.6400°W

Satellite Date Start Highest point End Downlink Frequencies (MHz)
Time Altitude Azimuth
AO-Echo 29 Jul 03:04:58 03:09:25 29° 93° (E) 03:13:44 ?
Oscar 16 29 Jul 03:14:00 03:19:09 64° 102° (ESE) 03:24:17 437.025 USB, Beacon 2401.1428
OPAL 29 Jul 03:25:34 03:29:59 34° 59° (ENE) 03:34:26 ?
ITAMSAT 1 29 Jul 03:34:19 03:39:20 46° 99° (E) 03:44:17 435.822 SSB
TMSAT-1 29 Jul 03:50:29 03:54:46 24° 91° (E) 03:59:00 436.925 FM
AO-27 29 Jul 03:53:24 03:58:36 66° 103° (ESE) 04:03:45 436.795 MHz FM
Uribyol 2 29 Jul 03:53:48 03:58:59 69° 103° (ESE) 04:04:07 436.500 FM
MaSat-1 29 Jul 03:57:04 03:59:44 14° 14° (NNE) 04:02:27 437.345 MHz
AO-7 29 Jul 04:00:27 04:03:25 12° 78° (ENE) 04:06:22 29.400 - 29.500 MHz
ISS 29 Jul 04:06:01 04:09:23 75° 183° (S) 04:12:45 145.800 FM
Sapphire 29 Jul 04:11:52 04:16:45 33° 327° (NNW) 04:21:39 437.095 MHz 1200 baud AX-25 AFSK
Gurwin Techsat 1B 29 Jul 04:14:15 04:19:24 47° 99° (E) 04:24:30 435.225 FM
Oscar 19 29 Jul 04:25:12 04:30:01 40° 296° (WNW) 04:34:49 437.125 CW, 437.150 USB
JAS-1B 29 Jul 04:36:57 04:46:45 82° 105° (ESE) 04:55:14 435.800 - 435.900 CW/SSB
AO-Echo 29 Jul 04:43:29 04:48:28 50° 293° (WNW) 04:53:16 ?
PCSat 29 Jul 04:46:19 04:50:44 25° 336° (NNW) 04:55:11 145.825 MHz
Oscar 16 29 Jul 04:53:58 04:58:09 26° 302° (WNW) 05:02:20 437.025 USB, Beacon 2401.1428
Uosat F 29 Jul 05:01:53 05:05:55 24° 92° (E) 05:09:55 435.120 FM
OPAL 29 Jul 05:04:04 05:08:47 44° 259° (WSW) 05:13:34 ?
ITAMSAT 1 29 Jul 05:14:05 05:18:43 34° 299° (WNW) 05:23:20 435.822 SSB
TMSAT-1 29 Jul 05:29:53 05:35:08 64° 291° (WNW) 05:40:22 436.925 FM
AO-27 29 Jul 05:33:33 05:37:44 25° 303° (WNW) 05:41:55 436.795 MHz FM
Uribyol 2 29 Jul 05:33:57 05:38:03 24° 303° (WNW) 05:42:08 436.500 FM
MaSat-1 29 Jul 05:34:10 05:38:46 29° 38° (NE) 05:43:21 437.345 MHz
ISS 29 Jul 05:42:45 05:45:56 40° 203° (SSW) 05:49:06 145.800 FM
STRAND 1 29 Jul 05:49:02 05:52:56 22° 55° (NE) 05:56:49 ?
AO-7 29 Jul 05:50:14 05:58:23 52° 101° (ESE) 06:06:25 29.400 - 29.500 MHz
Gurwin Techsat 1B 29 Jul 05:54:30 05:59:16 35° 299° (WNW) 06:04:01 435.225 FM
Sapphire 29 Jul 05:58:05 06:01:49 18° 353° (N) 06:05:33 437.095 MHz 1200 baud AX-25 AFSK
AO-Echo 29 Jul 06:24:26 06:26:05 12° 314° (NW) 06:27:43 ?
JAS-1B 29 Jul 06:27:50 06:36:22 37° 310° (NW) 06:44:08 435.800 - 435.900 CW/SSB
PCSat 29 Jul 06:32:23 06:36:03 18° 2° (N) 06:39:42 145.825 MHz
Uosat F 29 Jul 06:40:09 06:45:08 61° 291° (WNW) 06:50:03 435.120 FM
JAS-2 29 Jul 06:40:16 06:44:33 19° 84° (E) 06:48:31 435.800 - 435.900 CW/SSB, 435.910 FM
KITSAT 1 29 Jul 06:47:36 06:54:49 37° 112° (ESE) 07:02:03 435.175 FM
TMSAT-1 29 Jul 07:11:19 07:14:08 15° 311° (NW) 07:16:57 436.925 FM
MaSat-1 29 Jul 07:11:21 07:16:42 80° 239° (WSW) 07:21:53 437.345 MHz
ISS 29 Jul 07:20:46 07:21:59 12° 221° (SW) 07:23:11 145.800 FM
STRAND 1 29 Jul 07:26:29 07:31:38 77° 255° (WSW) 07:36:49 ?
Hamsat 29 Jul 07:32:10 07:36:24 55° 100° (E) 07:40:39 145.90 MHz
Sapphire 29 Jul 07:43:02 07:47:12 22° 19° (NNE) 07:51:22 437.095 MHz 1200 baud AX-25 AFSK
AO-7 29 Jul 07:43:16 07:51:13 51° 304° (WNW) 07:59:07 29.400 - 29.500 MHz
SO-67 29 Jul 08:04:04 08:06:44 20° 92° (E) 08:09:23 435.3500 MHz FM
PCSat 29 Jul 08:16:36 08:21:16 28° 28° (NNE) 08:25:54 145.825 MHz
JAS-1B 29 Jul 08:18:52 08:24:07 16° 335° (NNW) 08:29:11 435.800 - 435.900 CW/SSB
Saudisat 1A 29 Jul 08:18:56 08:22:32 25° 118° (ESE) 08:26:09 436.775 MHz
Uosat F 29 Jul 08:20:37 08:22:59 13° 312° (NW) 08:25:21 435.120 FM
JAS-2 29 Jul 08:24:22 08:30:40 84° 288° (WNW) 08:36:13 435.800 - 435.900 CW/SSB, 435.910 FM
KITSAT 1 29 Jul 08:41:38 08:49:45 74° 315° (NW) 08:57:54 435.175 FM
MaSat-1 29 Jul 08:50:03 08:53:16 16° 259° (WSW) 08:56:24 437.345 MHz
Hamsat 29 Jul 09:08:46 09:12:05 22° 299° (WNW) 09:15:24 145.90 MHz
STRAND 1 29 Jul 09:09:15 09:11:43 13° 275° (W) 09:14:12 ?
Sapphire 29 Jul 09:26:30 09:31:50 53° 43° (NE) 09:37:08 437.095 MHz 1200 baud AX-25 AFSK
SO-67 29 Jul 09:36:43 09:39:58 37° 291° (WNW) 09:43:11 435.3500 MHz FM
AO-7 29 Jul 09:36:48 09:42:14 20° 328° (NNW) 09:47:40 29.400 - 29.500 MHz
UKube-1 29 Jul 09:48:05 09:50:26 14° 88° (E) 09:52:46 145.840 MHz, 145.915 MHz
Saudisat 1A 29 Jul 09:57:25 10:01:49 65° 318° (NW) 10:06:15 436.775 MHz
PCSat 29 Jul 09:59:58 10:05:27 84° 51° (NE) 10:10:53 145.825 MHz
JAS-1B 29 Jul 10:08:10 10:10:43 11° 1° (N) 10:13:15 435.800 - 435.900 CW/SSB
JAS-2 29 Jul 10:10:20 10:14:49 21° 312° (NW) 10:18:58 435.800 - 435.900 CW/SSB, 435.910 FM
HO-68 29 Jul 10:24:19 10:31:12 47° 99° (E) 10:38:01 435.675 MHz FM
Oscar 11 29 Jul 10:32:28 10:35:48 21° 91° (E) 10:39:08 145.825 FM, Beacon 2401.500 USB
KITSAT 1 29 Jul 10:39:05 10:46:28 37° 342° (NNW) 10:53:52 435.175 FM
FUNcube-1 29 Jul 10:54:42 10:56:58 14° 88° (E) 10:59:13 145.950 - 145.970 MHz USB
Sapphire 29 Jul 11:10:11 11:15:10 38° 244° (WSW) 11:20:07 437.095 MHz 1200 baud AX-25 AFSK
UKube-1 29 Jul 11:22:52 11:27:15 83° 287° (WNW) 11:31:36 145.840 MHz, 145.915 MHz
AO-7 29 Jul 11:29:38 11:31:53 11° 355° (N) 11:34:07 29.400 - 29.500 MHz
Saudisat 1A 29 Jul 11:38:38 11:42:11 23° 341° (NNW) 11:45:44 436.775 MHz
PCSat 29 Jul 11:44:15 11:48:16 21° 251° (WSW) 11:52:16 145.825 MHz
JAS-1B 29 Jul 11:51:47 11:57:22 17° 28° (NNE) 12:02:59 435.800 - 435.900 CW/SSB
Oscar 11 29 Jul 12:08:05 12:12:19 54° 290° (WNW) 12:16:33 145.825 FM, Beacon 2401.500 USB
HO-68 29 Jul 12:12:11 12:18:59 49° 300° (WNW) 12:25:46 435.675 MHz FM
FUNcube-1 29 Jul 12:29:45 12:33:56 77° 287° (WNW) 12:38:07 145.950 - 145.970 MHz USB
Oscar 19 29 Jul 12:31:26 12:35:02 20° 54° (NE) 12:38:38 437.125 CW, 437.150 USB
KITSAT 1 29 Jul 12:36:59 12:44:11 33° 11° (N) 12:51:22 435.175 FM
AO-Echo 29 Jul 12:47:28 12:50:31 16° 50° (NE) 12:53:32 ?
Oscar 16 29 Jul 12:58:44 13:03:10 31° 60° (ENE) 13:07:37 437.025 USB, Beacon 2401.1428
UKube-1 29 Jul 13:00:26 13:02:49 15° 307° (NW) 13:05:12 145.840 MHz, 145.915 MHz
SO-50 29 Jul 13:02:43 13:06:08 22° 116° (ESE) 13:09:38 436.795 FM
AO-7 29 Jul 13:16:58 13:21:16 15° 23° (NNE) 13:25:34 29.400 - 29.500 MHz
Saudisat 1A 29 Jul 13:20:08 13:23:12 18° 5° (N) 13:26:16 436.775 MHz
ITAMSAT 1 29 Jul 13:20:22 13:24:31 25° 57° (ENE) 13:28:40 435.822 SSB
JAS-1B 29 Jul 13:36:47 13:45:14 39° 52° (NE) 13:54:04 435.800 - 435.900 CW/SSB
AO-27 29 Jul 13:39:00 13:43:37 33° 61° (ENE) 13:48:15 436.795 MHz FM
Uribyol 2 29 Jul 13:39:07 13:43:45 34° 61° (ENE) 13:48:24 436.500 FM
TMSAT-1 29 Jul 13:40:23 13:43:11 15° 49° (NE) 13:46:00 436.925 FM
RS-15 29 Jul 13:49:11 13:59:03 40° 110° (ESE) 14:08:46 29.354 - 29.394 USB, Beacon 29.352 USB
HO-68 29 Jul 14:01:07 14:05:09 16° 323° (NW) 14:09:10 435.675 MHz FM
Gurwin Techsat 1B 29 Jul 14:02:58 14:07:14 25° 57° (ENE) 14:11:31 435.225 FM
FUNcube-1 29 Jul 14:07:54 14:09:40 13° 306° (NW) 14:11:26 145.950 - 145.970 MHz USB
Oscar 19 29 Jul 14:08:39 14:13:46 87° 254° (WSW) 14:18:57 437.125 CW, 437.150 USB
AO-Echo 29 Jul 14:23:07 14:28:24 68° 70° (ENE) 14:33:41 ?
KITSAT 1 29 Jul 14:33:18 14:41:19 59° 38° (NE) 14:49:16 435.175 FM
Oscar 16 29 Jul 14:37:21 14:42:20 51° 260° (W) 14:47:22 437.025 USB, Beacon 2401.1428
SO-50 29 Jul 14:41:45 14:46:15 74° 316° (NW) 14:50:53 436.795 FM
Uosat F 29 Jul 14:45:27 14:47:48 13° 48° (NE) 14:50:08 435.120 FM
ITAMSAT 1 29 Jul 14:58:24 15:03:36 69° 257° (WSW) 15:08:50 435.822 SSB
Saudisat 1A 29 Jul 15:00:04 15:04:03 31° 29° (NNE) 15:08:00 436.775 MHz
UOSAT-12 29 Jul 15:02:02 15:05:48 25° 117° (ESE) 15:09:38 437.025 FM, 437.400 FM
AO-7 29 Jul 15:04:25 15:11:46 36° 49° (NE) 15:19:07 29.400 - 29.500 MHz
TMSAT-1 29 Jul 15:16:57 15:22:11 63° 69° (ENE) 15:27:26 436.925 FM
AO-27 29 Jul 15:17:58 15:23:01 48° 261° (W) 15:28:05 436.795 MHz FM
Uribyol 2 29 Jul 15:18:09 15:23:08 46° 261° (W) 15:28:09 436.500 FM
JAS-1B 29 Jul 15:25:41 15:34:55 80° 255° (WSW) 15:44:58 435.800 - 435.900 CW/SSB
Gurwin Techsat 1B 29 Jul 15:41:31 15:46:49 68° 257° (WSW) 15:52:09 435.225 FM
Oscar 19 29 Jul 15:50:56 15:53:55 15° 274° (W) 15:56:54 437.125 CW, 437.150 USB
RS-15 29 Jul 15:59:28 16:10:33 81° 317° (NW) 16:21:34 29.354 - 29.394 USB, Beacon 29.352 USB
AO-Echo 29 Jul 16:03:27 16:07:38 23° 270° (W) 16:11:51 ?
Uosat F 29 Jul 16:20:41 16:25:39 60° 68° (ENE) 16:30:38 435.120 FM
SO-50 29 Jul 16:23:44 16:27:33 25° 339° (NNW) 16:31:26 436.795 FM
KITSAT 1 29 Jul 16:28:59 16:36:45 52° 242° (WSW) 16:44:27 435.175 FM
Saudisat 1A 29 Jul 16:39:35 16:44:00 70° 230° (SW) 16:48:23 436.775 MHz
UOSAT-12 29 Jul 16:40:57 16:45:36 69° 317° (NW) 16:50:20 437.025 FM, 437.400 FM
ITAMSAT 1 29 Jul 16:42:10 16:44:07 12° 277° (W) 16:46:03 435.822 SSB
AO-7 29 Jul 16:55:35 17:03:58 78° 251° (WSW) 17:12:24 29.400 - 29.500 MHz
JAS-2 29 Jul 16:57:48 17:03:40 26° 52° (NE) 17:09:08 435.800 - 435.900 CW/SSB, 435.910 FM
Hamsat 29 Jul 16:58:02 17:00:05 13° 55° (NE) 17:02:09 145.90 MHz
TMSAT-1 29 Jul 16:58:17 17:02:33 24° 269° (W) 17:06:51 436.925 FM
OPAL 29 Jul 17:07:42 17:12:05 29° 97° (E) 17:16:30 ?
JAS-1B 29 Jul 17:19:35 17:26:56 26° 279° (W) 17:34:46 435.800 - 435.900 CW/SSB
Gurwin Techsat 1B 29 Jul 17:25:48 17:27:49 12° 277° (W) 17:29:52 435.225 FM
Uosat F 29 Jul 18:00:45 18:04:50 24° 268° (W) 18:08:56 435.120 FM
SO-50 29 Jul 18:06:13 18:09:34 19° 4° (N) 18:12:58 436.795 FM
RS-15 29 Jul 18:14:04 18:24:32 47° 347° (NNW) 18:35:05 29.354 - 29.394 USB, Beacon 29.352 USB
Saudisat 1A 29 Jul 18:21:03 18:22:49 12° 250° (WSW) 18:24:34 436.775 MHz
UOSAT-12 29 Jul 18:22:38 18:26:32 25° 340° (NNW) 18:30:29 437.025 FM, 437.400 FM
KITSAT 1 29 Jul 18:27:18 18:30:16 12° 264° (W) 18:33:13 435.175 FM
Hamsat 29 Jul 18:31:13 18:35:24 83° 74° (ENE) 18:39:39 145.90 MHz
JAS-2 29 Jul 18:40:13 18:47:57 83° 72° (ENE) 18:55:03 435.800 - 435.900 CW/SSB, 435.910 FM
SO-67 29 Jul 18:43:17 18:45:49 19° 63° (ENE) 18:48:21 435.3500 MHz FM
OPAL 29 Jul 18:46:20 18:51:14 52° 296° (WNW) 18:56:11 ?
AO-7 29 Jul 18:52:09 18:58:10 21° 274° (W) 19:04:13 29.400 - 29.500 MHz
HO-68 29 Jul 19:14:24 19:19:19 20° 42° (NE) 19:24:13 435.675 MHz FM
STRAND 1 29 Jul 19:31:36 19:35:42 24° 91° (E) 19:39:46 ?
SO-50 29 Jul 19:47:14 19:51:27 32° 28° (NNE) 19:55:43 436.795 FM
Oscar 10/S400 29 Jul 20:01:12 20:13:15 17° 133° (SE) 20:31:43 145.825 - 145.975 CW/USB, Beacon 145.810 USB
UOSAT-12 29 Jul 20:04:41 20:08:10 20° 5° (N) 20:11:39 437.025 FM, 437.400 FM
Hamsat 29 Jul 20:09:55 20:12:00 13° 274° (W) 20:14:05 145.90 MHz
SO-67 29 Jul 20:15:21 20:18:40 42° 262° (W) 20:22:00 435.3500 MHz FM
OPAL 29 Jul 20:27:03 20:29:07 13° 316° (NW) 20:31:11 ?
JAS-2 29 Jul 20:27:22 20:33:39 27° 271° (W) 20:39:35 435.800 - 435.900 CW/SSB, 435.910 FM
RS-15 29 Jul 20:28:55 20:39:32 51° 20° (NNE) 20:50:21 29.354 - 29.394 USB, Beacon 29.352 USB
UKube-1 29 Jul 20:48:46 20:52:28 27° 61° (ENE) 20:56:10 145.840 MHz, 145.915 MHz
HO-68 29 Jul 20:58:46 21:05:50 64° 65° (ENE) 21:12:54 435.675 MHz FM
STRAND 1 29 Jul 21:10:15 21:15:19 62° 291° (WNW) 21:20:20 ?
MaSat-1 29 Jul 21:10:28 21:12:54 15° 100° (E) 21:15:29 437.345 MHz
SO-50 29 Jul 21:27:44 21:32:27 77° 229° (SW) 21:37:15 436.795 FM
Oscar 11 29 Jul 21:33:04 21:36:59 35° 65° (ENE) 21:40:55 145.825 FM, Beacon 2401.500 USB
UOSAT-12 29 Jul 21:45:18 21:49:37 33° 28° (NNE) 21:53:55 437.025 FM, 437.400 FM
FUNcube-1 29 Jul 21:56:33 22:00:04 25° 62° (ENE) 22:03:31 145.950 - 145.970 MHz USB
UKube-1 29 Jul 22:24:19 22:28:31 44° 261° (W) 22:32:44 145.840 MHz, 145.915 MHz
RS-15 29 Jul 22:42:01 22:53:02 86° 230° (SW) 23:04:24 29.354 - 29.394 USB, Beacon 29.352 USB
MaSat-1 29 Jul 22:44:57 22:49:19 86° 122° (ESE) 22:54:21 437.345 MHz
HO-68 29 Jul 22:47:35 22:54:00 34° 266° (W) 23:00:26 435.675 MHz FM
STRAND 1 29 Jul 22:51:03 22:53:35 14° 312° (NW) 22:56:06 ?
Oscar 11 29 Jul 23:09:19 23:13:12 32° 265° (W) 23:17:07 145.825 FM, Beacon 2401.500 USB
SO-50 29 Jul 23:09:39 23:12:20 15° 249° (WSW) 23:15:02 436.795 FM
UOSAT-12 29 Jul 23:25:26 23:30:11 71° 230° (SW) 23:34:52 437.025 FM, 437.400 FM
FUNcube-1 29 Jul 23:32:10 23:36:18 45° 261° (W) 23:40:22 145.950 - 145.970 MHz USB
ISS 30 Jul 00:06:33 00:07:58 12° 139° (SE) 00:09:23 145.800 FM
Sapphire 30 Jul 00:18:34 00:20:07 11° 101° (ESE) 00:21:39 437.095 MHz 1200 baud AX-25 AFSK
MaSat-1 30 Jul 00:23:30 00:27:22 25° 326° (NW) 00:31:34 437.345 MHz
PCSat 30 Jul 00:48:57 00:52:57 21° 109° (ESE) 00:56:58 145.825 MHz
RS-15 30 Jul 00:55:02 01:04:00 31° 255° (WSW) 01:13:13 29.354 - 29.394 USB, Beacon 29.352 USB
UOSAT-12 30 Jul 01:07:12 01:09:32 14° 250° (WSW) 01:11:51 437.025 FM, 437.400 FM
ISS 30 Jul 01:40:51 01:44:02 41° 158° (SSE) 01:47:14 145.800 FM
Sapphire 30 Jul 01:57:08 02:02:26 58° 122° (ESE) 02:07:46 437.095 MHz 1200 baud AX-25 AFSK
MaSat-1 30 Jul 02:04:13 02:06:31 13° 350° (N) 02:08:52 437.345 MHz
Oscar 19 30 Jul 02:14:46 02:18:45 22° 90° (E) 02:22:43 437.125 CW, 437.150 USB
AO-Echo 30 Jul 02:26:07 02:28:49 14° 84° (E) 02:31:27 ?
PCSat 30 Jul 02:30:20 02:35:46 84° 309° (NW) 02:41:15 145.825 MHz
Oscar 16 30 Jul 02:42:50 02:47:38 37° 96° (E) 02:52:24 437.025 USB, Beacon 2401.1428
OPAL 30 Jul 02:51:36 02:55:08 20° 51° (NE) 02:58:42 ?
